Location: Beccas
(43.4309°N, 0.1528°E)
Time: 22:53:06
(UTC+00:00)

CSL-04 Rocket - Pass Details

Date: 15 October 2021
Orbit: 806 x 860 km, 98.9° (Epoch: 26 November)

Event Time Altitude Azimuth Distance (km) Brightness Sun altitude
Exits shadow 19:47:11 37° 193° (SSW) 1,304 4.6 -28.0°
Maximum altitude 19:49:18 62° 258° (WSW) 959 4.1 -28.4°
Drops below altitude 10° 19:54:48 10° 339° (NNW) 2,503 6.6 -29.4°
Sets 19:57:14 0° 343° (NNW) 3,446 7.3 -29.8°
